Terug naar catalogus

CZ-6A DEB

ActiefPO
NORAD 64638·DEBRIS·🇨🇳 China

Gelanceerd Aug 6, 2024 vanaf Taiyuan Satellite Launch Center

Loading…

Volgende Passages (komende 24 uur)

TLE

VersSource: Space-Track

Epoch: Sep 13, 2026, 10:05 UTC

1 64638U 24140AEC 26256.42053892  .00004547  00000-0  12158-2 0  9991
2 64638  88.8592 248.7497 0050042  58.1530 302.4532 14.47433188104684

Volg CZ-6A DEB in realtime met AllMySat

Download on the App Store